Location: Darmstadt
(49.8706°N, 8.6494°E)
Time: 07:32:13
(UTC+01:00)

CSL-04 DEB - Pass Details

Date: 31 October 2020
Orbit: 545 x 628 km, 98.8° (Epoch: 02 December)

Event Time Altitude Azimuth Distance (km) Brightness Sun altitude
Rises 17:42:34 0° 15° (NNE) 2,733 7.6 -6.8°
Reaches altitude 10° 17:44:43 10° 17° (NNE) 1,830 6.7 -7.1°
Maximum altitude 17:48:39 82° 103° (ESE) 558 4.3 -7.8°
Drops below altitude 10° 17:52:34 10° 193° (SSW) 1,814 7.3 -8.4°
Sets 17:54:41 0° 195° (SSW) 2,707 8.2 -8.7°
